Date_Time,Julian_Date,Latitude,Longitude,Instrument_Depth,U,V,Speed,Direction
(yyyy-mm-dd hh:mn:ss UTC),(JD),(+ deg. North),(+ deg. East),(m),(cm/s),(cm/s),(cm/s),(deg True)
1981-03-05 17:40:00 UTC,2444669.236111,27.9061,-93.7647,0530,16.88,26.00,31.0000,33.0000
1981-03-05 18:00:00 UTC,2444669.250000,27.9061,-93.7647,0530,15.28,21.03,26.0000,36.0000
1981-03-05 18:20:00 UTC,2444669.263889,27.9061,-93.7647,0530,17.45,23.16,29.0000,37.0000
1981-03-05 18:40:00 UTC,2444669.277778,27.9061,-93.7647,0530,19.40,26.70,33.0000,36.0000
1981-03-05 19:00:00 UTC,2444669.291667,27.9061,-93.7647,0530,18.22,25.08,31.0000,36.0000
1981-03-05 19:20:00 UTC,2444669.305556,27.9061,-93.7647,0530,23.40,29.94,38.0000,38.0000
1981-03-05 19:40:00 UTC,2444669.319444,27.9061,-93.7647,0530,24.87,23.19,34.0000,47.0000
1981-03-05 20:00:00 UTC,2444669.333333,27.9061,-93.7647,0530,25.89,18.81,32.0000,54.0000
1981-03-05 20:20:00 UTC,2444669.347222,27.9061,-93.7647,0530,31.03,20.15,37.0000,57.0000
1981-03-05 20:40:00 UTC,2444669.361111,27.9061,-93.7647,0530,22.98,19.28,30.0000,50.0000
1981-03-05 21:00:00 UTC,2444669.375000,27.9061,-93.7647,0530,29.93,21.75,37.0000,54.0000
1981-03-05 21:20:00 UTC,2444669.388889,27.9061,-93.7647,0530,26.70,19.40,33.0000,54.0000
1981-03-05 21:40:00 UTC,2444669.402778,27.9061,-93.7647,0530,28.67,20.08,35.0000,55.0000
1981-03-05 22:00:00 UTC,2444669.416667,27.9061,-93.7647,0530,26.70,19.40,33.0000,54.0000
1981-03-05 22:20:00 UTC,2444669.430556,27.9061,-93.7647,0530,26.96,13.15,30.0000,64.0000
1981-03-05 22:40:00 UTC,2444669.444444,27.9061,-93.7647,0530,27.41,12.20,30.0000,66.0000
1981-03-05 23:00:00 UTC,2444669.458333,27.9061,-93.7647,0530,27.19,12.68,30.0000,65.0000
1981-03-05 23:20:00 UTC,2444669.472222,27.9061,-93.7647,0530,27.41,12.20,30.0000,66.0000
1981-03-05 23:40:00 UTC,2444669.486111,27.9061,-93.7647,0530,29.91,13.95,33.0000,65.0000
1981-03-06 00:00:00 UTC,2444669.500000,27.9061,-93.7647,0530,31.74,12.18,34.0000,69.0000
1981-03-06 00:20:00 UTC,2444669.513889,27.9061,-93.7647,0530,30.90,16.43,35.0000,62.0000
1981-03-06 00:40:00 UTC,2444669.527778,27.9061,-93.7647,0530,24.72,13.15,28.0000,62.0000
1981-03-06 01:00:00 UTC,2444669.541667,27.9061,-93.7647,0530,24.27,9.32,26.0000,69.0000
1981-03-06 01:20:00 UTC,2444669.555556,27.9061,-93.7647,0530,20.67,10.08,23.0000,64.0000
1981-03-06 01:40:00 UTC,2444669.569444,27.9061,-93.7647,0530,20.85,9.72,23.0000,65.0000
1981-03-06 02:00:00 UTC,2444669.583333,27.9061,-93.7647,0530,21.87,7.11,23.0000,72.0000
1981-03-06 02:20:00 UTC,2444669.597222,27.9061,-93.7647,0530,20.92,6.80,22.0000,72.0000
1981-03-06 02:40:00 UTC,2444669.611111,27.9061,-93.7647,0530,20.10,8.95,22.0000,66.0000
1981-03-06 03:00:00 UTC,2444669.625000,27.9061,-93.7647,0530,18.37,10.18,21.0000,61.0000
1981-03-06 03:20:00 UTC,2444669.638889,27.9061,-93.7647,0530,17.96,6.19,19.0000,71.0000
1981-03-06 03:40:00 UTC,2444669.652778,27.9061,-93.7647,0530,18.27,8.13,20.0000,66.0000
1981-03-06 04:00:00 UTC,2444669.666667,27.9061,-93.7647,0530,17.22,8.03,19.0000,65.0000
1981-03-06 04:20:00 UTC,2444669.680556,27.9061,-93.7647,0530,18.27,8.13,20.0000,66.0000
1981-03-06 04:40:00 UTC,2444669.694444,27.9061,-93.7647,0530,16.18,7.89,18.0000,64.0000
1981-03-06 05:00:00 UTC,2444669.708333,27.9061,-93.7647,0530,16.29,9.79,19.0000,59.0000
1981-03-06 05:20:00 UTC,2444669.722222,27.9061,-93.7647,0530,18.54,7.49,20.0000,68.0000
1981-03-06 05:40:00 UTC,2444669.736111,27.9061,-93.7647,0530,21.33,8.62,23.0000,68.0000
1981-03-06 06:00:00 UTC,2444669.750000,27.9061,-93.7647,0530,18.37,10.18,21.0000,61.0000
1981-03-06 06:20:00 UTC,2444669.763889,27.9061,-93.7647,0530,18.66,11.66,22.0000,58.0000
1981-03-06 06:40:00 UTC,2444669.777778,27.9061,-93.7647,0530,17.61,11.44,21.0000,57.0000
1981-03-06 07:00:00 UTC,2444669.791667,27.9061,-93.7647,0530,16.31,7.61,18.0000,65.0000
1981-03-06 07:20:00 UTC,2444669.805556,27.9061,-93.7647,0530,16.62,9.21,19.0000,61.0000
1981-03-06 07:40:00 UTC,2444669.819444,27.9061,-93.7647,0530,14.94,5.73,16.0000,69.0000
1981-03-06 08:00:00 UTC,2444669.833333,27.9061,-93.7647,0530,13.31,4.33,14.0000,72.0000
1981-03-06 08:20:00 UTC,2444669.847222,27.9061,-93.7647,0530,16.18,11.76,20.0000,54.0000
1981-03-06 08:40:00 UTC,2444669.861111,27.9061,-93.7647,0530,12.96,13.90,19.0000,43.0000
1981-03-06 09:00:00 UTC,2444669.875000,27.9061,-93.7647,0530,13.79,11.57,18.0000,50.0000
1981-03-06 09:20:00 UTC,2444669.888889,27.9061,-93.7647,0530,13.40,10.47,17.0000,52.0000
1981-03-06 09:40:00 UTC,2444669.902778,27.9061,-93.7647,0530,11.82,9.23,15.0000,52.0000
1981-03-06 10:00:00 UTC,2444669.916667,27.9061,-93.7647,0530,10.52,7.64,13.0000,54.0000
1981-03-06 10:20:00 UTC,2444669.930556,27.9061,-93.7647,0530,10.72,9.00,14.0000,50.0000
1981-03-06 10:40:00 UTC,2444669.944444,27.9061,-93.7647,0530,8.55,6.92,11.0000,51.0000
1981-03-06 11:00:00 UTC,2444669.958333,27.9061,-93.7647,0530,6.16,7.88,10.0000,38.0000
1981-03-06 11:20:00 UTC,2444669.972222,27.9061,-93.7647,0530,5.88,8.09,10.0000,36.0000
1981-03-06 11:40:00 UTC,2444669.986111,27.9061,-93.7647,0530,4.90,7.55,9.0000,33.0000
1981-03-06 12:00:00 UTC,2444670.000000,27.9061,-93.7647,0530,1.10,8.93,9.0000,7.0000
1981-03-06 12:20:00 UTC,2444670.013889,27.9061,-93.7647,0530,1.56,8.86,9.0000,10.0000
1981-03-06 12:40:00 UTC,2444670.027778,27.9061,-93.7647,0530,3.08,8.46,9.0000,20.0000
1981-03-06 13:00:00 UTC,2444670.041667,27.9061,-93.7647,0530,2.48,8.65,9.0000,16.0000
1981-03-06 13:20:00 UTC,2444670.055556,27.9061,-93.7647,0530,1.41,8.89,9.0000,9.0000
1981-03-06 13:40:00 UTC,2444670.069444,27.9061,-93.7647,0530,0.94,8.95,9.0000,6.0000
1981-03-06 14:00:00 UTC,2444670.083333,27.9061,-93.7647,0530,0.78,8.97,9.0000,5.0000
1981-03-06 14:20:00 UTC,2444670.097222,27.9061,-93.7647,0530,0.31,8.99,9.0000,2.0000
1981-03-06 14:40:00 UTC,2444670.111111,27.9061,-93.7647,0530,-0.87,9.96,10.0000,355.0000
1981-03-06 15:00:00 UTC,2444670.125000,27.9061,-93.7647,0530,-1.91,10.83,11.0000,350.0000
1981-03-06 15:20:00 UTC,2444670.138889,27.9061,-93.7647,0530,-1.53,10.89,11.0000,352.0000
1981-03-06 15:40:00 UTC,2444670.152778,27.9061,-93.7647,0530,-0.52,9.99,10.0000,357.0000
1981-03-06 16:00:00 UTC,2444670.166667,27.9061,-93.7647,0530,-1.67,11.88,12.0000,352.0000
1981-03-06 16:20:00 UTC,2444670.180556,27.9061,-93.7647,0530,-1.81,12.87,13.0000,352.0000
1981-03-06 16:40:00 UTC,2444670.194444,27.9061,-93.7647,0530,0.49,13.99,14.0000,2.0000
1981-03-06 17:00:00 UTC,2444670.208333,27.9061,-93.7647,0530,2.35,14.82,15.0000,9.0000
1981-03-06 17:20:00 UTC,2444670.222222,27.9061,-93.7647,0530,2.43,13.79,14.0000,10.0000
1981-03-06 17:40:00 UTC,2444670.236111,27.9061,-93.7647,0530,6.09,15.87,17.0000,21.0000
1981-03-06 18:00:00 UTC,2444670.250000,27.9061,-93.7647,0530,7.32,16.44,18.0000,24.0000
1981-03-06 18:20:00 UTC,2444670.263889,27.9061,-93.7647,0530,11.85,19.71,23.0000,31.0000
1981-03-06 18:40:00 UTC,2444670.277778,27.9061,-93.7647,0530,12.36,20.57,24.0000,31.0000
1981-03-06 19:00:00 UTC,2444670.291667,27.9061,-93.7647,0530,14.42,24.00,28.0000,31.0000
1981-03-06 19:20:00 UTC,2444670.305556,27.9061,-93.7647,0530,13.42,19.90,24.0000,34.0000
1981-03-06 19:40:00 UTC,2444670.319444,27.9061,-93.7647,0530,13.62,20.97,25.0000,33.0000
1981-03-06 20:00:00 UTC,2444670.333333,27.9061,-93.7647,0530,15.87,21.84,27.0000,36.0000
1981-03-06 20:20:00 UTC,2444670.347222,27.9061,-93.7647,0530,19.68,22.64,30.0000,41.0000
1981-03-06 20:40:00 UTC,2444670.361111,27.9061,-93.7647,0530,17.71,20.38,27.0000,41.0000
1981-03-06 21:00:00 UTC,2444670.375000,27.9061,-93.7647,0530,18.38,18.38,26.0000,45.0000
1981-03-06 21:20:00 UTC,2444670.388889,27.9061,-93.7647,0530,15.69,16.82,23.0000,43.0000
1981-03-06 21:40:00 UTC,2444670.402778,27.9061,-93.7647,0530,16.09,15.00,22.0000,47.0000
1981-03-06 22:00:00 UTC,2444670.416667,27.9061,-93.7647,0530,14.63,13.64,20.0000,47.0000
1981-03-06 22:20:00 UTC,2444670.430556,27.9061,-93.7647,0530,13.75,9.99,17.0000,54.0000
1981-03-06 22:40:00 UTC,2444670.444444,27.9061,-93.7647,0530,16.11,10.07,19.0000,58.0000
1981-03-06 23:00:00 UTC,2444670.458333,27.9061,-93.7647,0530,16.29,9.79,19.0000,59.0000
1981-03-06 23:20:00 UTC,2444670.472222,27.9061,-93.7647,0530,14.38,7.01,16.0000,64.0000
1981-03-06 23:40:00 UTC,2444670.486111,27.9061,-93.7647,0530,12.79,5.69,14.0000,66.0000
1981-03-07 00:00:00 UTC,2444670.500000,27.9061,-93.7647,0530,14.62,6.51,16.0000,66.0000
1981-03-07 00:20:00 UTC,2444670.513889,27.9061,-93.7647,0530,17.78,-2.82,18.0000,99.0000
1981-03-07 00:40:00 UTC,2444670.527778,27.9061,-93.7647,0530,14.92,-1.57,15.0000,96.0000
1981-03-07 01:00:00 UTC,2444670.541667,27.9061,-93.7647,0530,13.39,-4.09,14.0000,107.0000
1981-03-07 01:20:00 UTC,2444670.555556,27.9061,-93.7647,0530,10.57,-3.03,11.0000,106.0000
1981-03-07 01:40:00 UTC,2444670.569444,27.9061,-93.7647,0530,11.20,-4.30,12.0000,111.0000
1981-03-07 02:00:00 UTC,2444670.583333,27.9061,-93.7647,0530,9.46,-3.26,10.0000,109.0000
1981-03-07 02:20:00 UTC,2444670.597222,27.9061,-93.7647,0530,8.65,-2.48,9.0000,106.0000
1981-03-07 02:40:00 UTC,2444670.611111,27.9061,-93.7647,0530,6.79,-1.69,7.0000,104.0000
1981-03-07 03:00:00 UTC,2444670.625000,27.9061,-93.7647,0530,5.82,-1.45,6.0000,104.0000
1981-03-07 03:20:00 UTC,2444670.638889,27.9061,-93.7647,0530,5.85,-1.35,6.0000,103.0000
1981-03-07 03:40:00 UTC,2444670.652778,27.9061,-93.7647,0530,5.97,-0.63,6.0000,96.0000
1981-03-07 04:00:00 UTC,2444670.666667,27.9061,-93.7647,0530,5.00,-0.17,5.0000,92.0000
1981-03-07 04:20:00 UTC,2444670.680556,27.9061,-93.7647,0530,5.89,1.14,6.0000,79.0000
1981-03-07 04:40:00 UTC,2444670.694444,27.9061,-93.7647,0530,5.74,1.75,6.0000,73.0000
1981-03-07 05:00:00 UTC,2444670.708333,27.9061,-93.7647,0530,3.99,0.28,4.0000,86.0000
1981-03-07 05:20:00 UTC,2444670.722222,27.9061,-93.7647,0530,2.98,0.37,3.0000,83.0000
1981-03-07 05:40:00 UTC,2444670.736111,27.9061,-93.7647,0530,3.63,1.69,4.0000,65.0000
1981-03-07 06:00:00 UTC,2444670.750000,27.9061,-93.7647,0530,4.29,2.58,5.0000,59.0000
1981-03-07 06:20:00 UTC,2444670.763889,27.9061,-93.7647,0530,4.86,5.04,7.0000,44.0000
1981-03-07 06:40:00 UTC,2444670.777778,27.9061,-93.7647,0530,5.56,5.75,8.0000,44.0000
1981-03-07 07:00:00 UTC,2444670.791667,27.9061,-93.7647,0530,5.44,4.41,7.0000,51.0000
1981-03-07 07:20:00 UTC,2444670.805556,27.9061,-93.7647,0530,5.56,5.75,8.0000,44.0000
1981-03-07 07:40:00 UTC,2444670.819444,27.9061,-93.7647,0530,7.09,5.54,9.0000,52.0000
1981-03-07 08:00:00 UTC,2444670.833333,27.9061,-93.7647,0530,8.09,3.95,9.0000,64.0000
1981-03-07 08:20:00 UTC,2444670.847222,27.9061,-93.7647,0530,7.56,2.60,8.0000,71.0000
1981-03-07 08:40:00 UTC,2444670.861111,27.9061,-93.7647,0530,7.76,1.94,8.0000,76.0000
1981-03-07 09:00:00 UTC,2444670.875000,27.9061,-93.7647,0530,7.97,-0.70,8.0000,95.0000
1981-03-07 09:20:00 UTC,2444670.888889,27.9061,-93.7647,0530,10.27,-3.94,11.0000,111.0000
1981-03-07 09:40:00 UTC,2444670.902778,27.9061,-93.7647,0530,7.95,-4.23,9.0000,118.0000
1981-03-07 10:00:00 UTC,2444670.916667,27.9061,-93.7647,0530,6.04,-5.25,8.0000,131.0000
1981-03-07 10:20:00 UTC,2444670.930556,27.9061,-93.7647,0530,8.04,-7.50,11.0000,133.0000
1981-03-07 10:40:00 UTC,2444670.944444,27.9061,-93.7647,0530,5.85,-5.46,8.0000,133.0000
1981-03-07 11:00:00 UTC,2444670.958333,27.9061,-93.7647,0530,5.75,-5.56,8.0000,134.0000
1981-03-07 11:20:00 UTC,2444670.972222,27.9061,-93.7647,0530,7.50,-8.04,11.0000,137.0000
1981-03-07 11:40:00 UTC,2444670.986111,27.9061,-93.7647,0530,4.93,-6.30,8.0000,142.0000
1981-03-07 12:00:00 UTC,2444671.000000,27.9061,-93.7647,0530,1.85,-5.71,6.0000,162.0000
1981-03-07 12:20:00 UTC,2444671.013889,27.9061,-93.7647,0530,2.05,-6.69,7.0000,163.0000
1981-03-07 12:40:00 UTC,2444671.027778,27.9061,-93.7647,0530,2.05,-6.69,7.0000,163.0000
1981-03-07 13:00:00 UTC,2444671.041667,27.9061,-93.7647,0530,2.34,-7.65,8.0000,163.0000
1981-03-07 13:20:00 UTC,2444671.055556,27.9061,-93.7647,0530,2.05,-6.69,7.0000,163.0000
1981-03-07 13:40:00 UTC,2444671.069444,27.9061,-93.7647,0530,2.34,-7.65,8.0000,163.0000
1981-03-07 14:00:00 UTC,2444671.083333,27.9061,-93.7647,0530,2.05,-6.69,7.0000,163.0000
1981-03-07 14:20:00 UTC,2444671.097222,27.9061,-93.7647,0530,1.17,-3.83,4.0000,163.0000
1981-03-07 14:40:00 UTC,2444671.111111,27.9061,-93.7647,0530,0.88,-2.87,3.0000,163.0000
1981-03-07 15:00:00 UTC,2444671.125000,27.9061,-93.7647,0530,0.58,-1.91,2.0000,163.0000
1981-03-07 15:20:00 UTC,2444671.138889,27.9061,-93.7647,0530,0.00,-0.00,0.0000,152.0000
1981-03-07 15:40:00 UTC,2444671.152778,27.9061,-93.7647,0530,0.00,-0.00,0.0000,163.0000
1981-03-07 16:00:00 UTC,2444671.166667,27.9061,-93.7647,0530,0.00,-0.00,0.0000,107.0000
1981-03-07 16:20:00 UTC,2444671.180556,27.9061,-93.7647,0530,1.83,0.81,2.0000,66.0000
1981-03-07 16:40:00 UTC,2444671.194444,27.9061,-93.7647,0530,1.41,1.41,2.0000,45.0000
1981-03-07 17:00:00 UTC,2444671.208333,27.9061,-93.7647,0530,2.73,2.93,4.0000,43.0000
1981-03-07 17:20:00 UTC,2444671.222222,27.9061,-93.7647,0530,4.81,6.39,8.0000,37.0000
1981-03-07 17:40:00 UTC,2444671.236111,27.9061,-93.7647,0530,5.54,7.09,9.0000,38.0000
1981-03-07 18:00:00 UTC,2444671.250000,27.9061,-93.7647,0530,8.04,7.50,11.0000,47.0000
1981-03-07 18:20:00 UTC,2444671.263889,27.9061,-93.7647,0530,3.08,3.94,5.0000,38.0000
1981-03-07 18:40:00 UTC,2444671.277778,27.9061,-93.7647,0530,3.81,5.87,7.0000,33.0000
1981-03-07 19:00:00 UTC,2444671.291667,27.9061,-93.7647,0530,3.63,7.13,8.0000,27.0000
1981-03-07 19:20:00 UTC,2444671.305556,27.9061,-93.7647,0530,5.90,6.79,9.0000,41.0000
1981-03-07 19:40:00 UTC,2444671.319444,27.9061,-93.7647,0530,8.90,6.47,11.0000,54.0000
1981-03-07 20:00:00 UTC,2444671.333333,27.9061,-93.7647,0530,10.65,7.46,13.0000,55.0000
1981-03-07 20:20:00 UTC,2444671.347222,27.9061,-93.7647,0530,10.90,7.08,13.0000,57.0000
1981-03-07 20:40:00 UTC,2444671.361111,27.9061,-93.7647,0530,13.52,3.62,14.0000,75.0000
1981-03-07 21:00:00 UTC,2444671.375000,27.9061,-93.7647,0530,16.69,3.24,17.0000,79.0000
1981-03-07 21:20:00 UTC,2444671.388889,27.9061,-93.7647,0530,18.58,3.95,19.0000,78.0000
1981-03-07 21:40:00 UTC,2444671.402778,27.9061,-93.7647,0530,15.84,2.23,16.0000,82.0000
1981-03-07 22:00:00 UTC,2444671.416667,27.9061,-93.7647,0530,11.99,-0.42,12.0000,92.0000
1981-03-07 22:20:00 UTC,2444671.430556,27.9061,-93.7647,0530,10.99,0.38,11.0000,88.0000
1981-03-07 22:40:00 UTC,2444671.444444,27.9061,-93.7647,0530,8.00,-0.28,8.0000,92.0000
1981-03-07 23:00:00 UTC,2444671.458333,27.9061,-93.7647,0530,6.96,-0.73,7.0000,96.0000
1981-03-07 23:20:00 UTC,2444671.472222,27.9061,-93.7647,0530,11.69,-2.70,12.0000,103.0000
1981-03-07 23:40:00 UTC,2444671.486111,27.9061,-93.7647,0530,12.67,-2.92,13.0000,103.0000
1981-03-08 00:00:00 UTC,2444671.500000,27.9061,-93.7647,0530,12.50,-3.58,13.0000,106.0000
1981-03-08 00:20:00 UTC,2444671.513889,27.9061,-93.7647,0530,10.05,-4.47,11.0000,114.0000
1981-03-08 00:40:00 UTC,2444671.527778,27.9061,-93.7647,0530,9.71,-5.16,11.0000,118.0000
1981-03-08 01:00:00 UTC,2444671.541667,27.9061,-93.7647,0530,10.60,-5.63,12.0000,118.0000
1981-03-08 01:20:00 UTC,2444671.555556,27.9061,-93.7647,0530,9.71,-7.05,12.0000,126.0000
1981-03-08 01:40:00 UTC,2444671.569444,27.9061,-93.7647,0530,9.19,-7.71,12.0000,130.0000
1981-03-08 02:00:00 UTC,2444671.583333,27.9061,-93.7647,0530,11.49,-9.64,15.0000,130.0000
1981-03-08 02:20:00 UTC,2444671.597222,27.9061,-93.7647,0530,13.02,-10.93,17.0000,130.0000
1981-03-08 02:40:00 UTC,2444671.611111,27.9061,-93.7647,0530,16.09,-13.50,21.0000,130.0000
1981-03-08 03:00:00 UTC,2444671.625000,27.9061,-93.7647,0530,14.55,-12.21,19.0000,130.0000
1981-03-08 03:20:00 UTC,2444671.638889,27.9061,-93.7647,0530,16.55,-12.93,21.0000,128.0000
1981-03-08 03:40:00 UTC,2444671.652778,27.9061,-93.7647,0530,16.55,-12.93,21.0000,128.0000
1981-03-08 04:00:00 UTC,2444671.666667,27.9061,-93.7647,0530,18.12,-14.16,23.0000,128.0000
1981-03-08 04:20:00 UTC,2444671.680556,27.9061,-93.7647,0530,22.85,-17.85,29.0000,128.0000
1981-03-08 04:40:00 UTC,2444671.694444,27.9061,-93.7647,0530,23.64,-18.47,30.0000,128.0000
1981-03-08 05:00:00 UTC,2444671.708333,27.9061,-93.7647,0530,22.06,-17.24,28.0000,128.0000
1981-03-08 05:20:00 UTC,2444671.722222,27.9061,-93.7647,0530,32.33,-21.81,39.0000,124.0000
1981-03-08 05:40:00 UTC,2444671.736111,27.9061,-93.7647,0530,33.99,0.59,34.0000,89.0000
1981-03-08 06:00:00 UTC,2444671.750000,27.9061,-93.7647,0530,31.00,0.54,31.0000,89.0000
1981-03-08 06:20:00 UTC,2444671.763889,27.9061,-93.7647,0530,34.99,0.61,35.0000,89.0000
1981-03-08 06:40:00 UTC,2444671.777778,27.9061,-93.7647,0530,37.42,-6.60,38.0000,100.0000
1981-03-08 07:00:00 UTC,2444671.791667,27.9061,-93.7647,0530,35.57,-10.20,37.0000,106.0000
1981-03-08 07:20:00 UTC,2444671.805556,27.9061,-93.7647,0530,32.59,-5.16,33.0000,99.0000
1981-03-08 07:40:00 UTC,2444671.819444,27.9061,-93.7647,0530,34.74,-4.27,35.0000,97.0000
1981-03-08 08:00:00 UTC,2444671.833333,27.9061,-93.7647,0530,35.08,-8.10,36.0000,103.0000
1981-03-08 08:20:00 UTC,2444671.847222,27.9061,-93.7647,0530,34.74,-4.27,35.0000,97.0000
1981-03-08 08:40:00 UTC,2444671.861111,27.9061,-93.7647,0530,34.81,-3.66,35.0000,96.0000
1981-03-08 09:00:00 UTC,2444671.875000,27.9061,-93.7647,0530,35.73,-4.39,36.0000,97.0000
1981-03-08 09:20:00 UTC,2444671.888889,27.9061,-93.7647,0530,35.45,-6.25,36.0000,100.0000
1981-03-08 09:40:00 UTC,2444671.902778,27.9061,-93.7647,0530,38.00,-8.77,39.0000,103.0000
1981-03-08 10:00:00 UTC,2444671.916667,27.9061,-93.7647,0530,34.10,-7.87,35.0000,103.0000
1981-03-08 10:20:00 UTC,2444671.930556,27.9061,-93.7647,0530,35.08,-8.10,36.0000,103.0000
1981-03-08 10:40:00 UTC,2444671.944444,27.9061,-93.7647,0530,35.57,-10.20,37.0000,106.0000
1981-03-08 11:00:00 UTC,2444671.958333,27.9061,-93.7647,0530,35.38,-10.82,37.0000,107.0000
1981-03-08 11:20:00 UTC,2444671.972222,27.9061,-93.7647,0530,30.31,-17.50,35.0000,120.0000
1981-03-08 11:40:00 UTC,2444671.986111,27.9061,-93.7647,0530,29.85,-20.13,36.0000,124.0000
1981-03-08 12:00:00 UTC,2444672.000000,27.9061,-93.7647,0530,28.37,-22.16,36.0000,128.0000
1981-03-08 12:20:00 UTC,2444672.013889,27.9061,-93.7647,0530,31.18,-18.00,36.0000,120.0000
1981-03-08 12:40:00 UTC,2444672.027778,27.9061,-93.7647,0530,29.87,-11.47,32.0000,111.0000
1981-03-08 13:00:00 UTC,2444672.041667,27.9061,-93.7647,0530,25.84,-13.17,29.0000,117.0000
1981-03-08 13:20:00 UTC,2444672.055556,27.9061,-93.7647,0530,25.17,-12.27,28.0000,116.0000
1981-03-08 13:40:00 UTC,2444672.069444,27.9061,-93.7647,0530,26.14,-10.03,28.0000,111.0000
1981-03-08 14:00:00 UTC,2444672.083333,27.9061,-93.7647,0530,24.43,-8.89,26.0000,110.0000
1981-03-08 14:20:00 UTC,2444672.097222,27.9061,-93.7647,0530,24.43,-8.89,26.0000,110.0000
1981-03-08 14:40:00 UTC,2444672.111111,27.9061,-93.7647,0530,23.64,-8.14,25.0000,109.0000
1981-03-08 15:00:00 UTC,2444672.125000,27.9061,-93.7647,0530,22.95,-7.02,24.0000,107.0000
1981-03-08 15:20:00 UTC,2444672.138889,27.9061,-93.7647,0530,22.41,-5.17,23.0000,103.0000
1981-03-08 15:40:00 UTC,2444672.152778,27.9061,-93.7647,0530,20.99,-0.73,21.0000,92.0000
1981-03-08 16:00:00 UTC,2444672.166667,27.9061,-93.7647,0530,20.99,-0.73,21.0000,92.0000
1981-03-08 16:20:00 UTC,2444672.180556,27.9061,-93.7647,0530,20.00,0.35,20.0000,89.0000
1981-03-08 16:40:00 UTC,2444672.194444,27.9061,-93.7647,0530,19.92,1.74,20.0000,85.0000
1981-03-08 17:00:00 UTC,2444672.208333,27.9061,-93.7647,0530,19.41,4.84,20.0000,76.0000
1981-03-08 17:20:00 UTC,2444672.222222,27.9061,-93.7647,0530,18.93,1.66,19.0000,85.0000
1981-03-08 17:40:00 UTC,2444672.236111,27.9061,-93.7647,0530,19.81,2.78,20.0000,82.0000
1981-03-08 18:00:00 UTC,2444672.250000,27.9061,-93.7647,0530,24.26,6.05,25.0000,76.0000
1981-03-08 18:20:00 UTC,2444672.263889,27.9061,-93.7647,0530,27.17,6.77,28.0000,76.0000
1981-03-08 18:40:00 UTC,2444672.277778,27.9061,-93.7647,0530,25.68,8.34,27.0000,72.0000
1981-03-08 19:00:00 UTC,2444672.291667,27.9061,-93.7647,0530,28.37,6.03,29.0000,78.0000
1981-03-08 19:20:00 UTC,2444672.305556,27.9061,-93.7647,0530,28.14,7.02,29.0000,76.0000
1981-03-08 19:40:00 UTC,2444672.319444,27.9061,-93.7647,0530,33.58,5.32,34.0000,81.0000
1981-03-08 20:00:00 UTC,2444672.333333,27.9061,-93.7647,0530,31.88,2.79,32.0000,85.0000
1981-03-08 20:20:00 UTC,2444672.347222,27.9061,-93.7647,0530,32.75,4.02,33.0000,83.0000
1981-03-08 20:40:00 UTC,2444672.361111,27.9061,-93.7647,0530,30.77,3.78,31.0000,83.0000
1981-03-08 21:00:00 UTC,2444672.375000,27.9061,-93.7647,0530,31.88,2.79,32.0000,85.0000
1981-03-08 21:20:00 UTC,2444672.388889,27.9061,-93.7647,0530,29.00,0.51,29.0000,89.0000
1981-03-08 21:40:00 UTC,2444672.402778,27.9061,-93.7647,0530,29.93,2.09,30.0000,86.0000
1981-03-08 22:00:00 UTC,2444672.416667,27.9061,-93.7647,0530,32.99,0.58,33.0000,89.0000
1981-03-08 22:20:00 UTC,2444672.430556,27.9061,-93.7647,0530,29.93,2.09,30.0000,86.0000
1981-03-08 22:40:00 UTC,2444672.444444,27.9061,-93.7647,0530,28.93,2.02,29.0000,86.0000
1981-03-08 23:00:00 UTC,2444672.458333,27.9061,-93.7647,0530,31.92,2.23,32.0000,86.0000
1981-03-08 23:20:00 UTC,2444672.472222,27.9061,-93.7647,0530,33.99,0.59,34.0000,89.0000
1981-03-08 23:40:00 UTC,2444672.486111,27.9061,-93.7647,0530,37.72,-4.63,38.0000,97.0000
1981-03-09 00:00:00 UTC,2444672.500000,27.9061,-93.7647,0530,38.00,-8.77,39.0000,103.0000
1981-03-09 00:20:00 UTC,2444672.513889,27.9061,-93.7647,0530,36.88,-12.70,39.0000,109.0000
1981-03-09 00:40:00 UTC,2444672.527778,27.9061,-93.7647,0530,37.30,-11.40,39.0000,107.0000
1981-03-09 01:00:00 UTC,2444672.541667,27.9061,-93.7647,0530,37.03,-8.55,38.0000,103.0000
1981-03-09 01:20:00 UTC,2444672.555556,27.9061,-93.7647,0530,35.73,-4.39,36.0000,97.0000
1981-03-09 01:40:00 UTC,2444672.569444,27.9061,-93.7647,0530,31.98,-1.12,32.0000,92.0000
1981-03-09 02:00:00 UTC,2444672.583333,27.9061,-93.7647,0530,33.98,-1.19,34.0000,92.0000
1981-03-09 02:20:00 UTC,2444672.597222,27.9061,-93.7647,0530,32.87,-2.88,33.0000,95.0000
1981-03-09 02:40:00 UTC,2444672.611111,27.9061,-93.7647,0530,35.80,-3.76,36.0000,96.0000
1981-03-09 03:00:00 UTC,2444672.625000,27.9061,-93.7647,0530,29.84,-3.14,30.0000,96.0000
1981-03-09 03:20:00 UTC,2444672.638889,27.9061,-93.7647,0530,35.80,-3.76,36.0000,96.0000
1981-03-09 03:40:00 UTC,2444672.652778,27.9061,-93.7647,0530,33.99,0.59,34.0000,89.0000
1981-03-09 04:00:00 UTC,2444672.666667,27.9061,-93.7647,0530,36.98,-1.29,37.0000,92.0000
1981-03-09 04:20:00 UTC,2444672.680556,27.9061,-93.7647,0530,36.98,1.29,37.0000,88.0000
1981-03-09 04:40:00 UTC,2444672.694444,27.9061,-93.7647,0530,37.98,-1.33,38.0000,92.0000
1981-03-09 05:00:00 UTC,2444672.708333,27.9061,-93.7647,0530,38.99,0.68,39.0000,89.0000
1981-03-09 05:20:00 UTC,2444672.722222,27.9061,-93.7647,0530,39.98,-1.40,40.0000,92.0000
1981-03-09 05:40:00 UTC,2444672.736111,27.9061,-93.7647,0530,39.98,1.40,40.0000,88.0000
1981-03-09 06:00:00 UTC,2444672.750000,27.9061,-93.7647,0530,37.91,2.65,38.0000,86.0000
1981-03-09 06:20:00 UTC,2444672.763889,27.9061,-93.7647,0530,35.73,4.39,36.0000,83.0000
1981-03-09 06:40:00 UTC,2444672.777778,27.9061,-93.7647,0530,37.72,4.63,38.0000,83.0000
1981-03-09 07:00:00 UTC,2444672.791667,27.9061,-93.7647,0530,36.91,2.58,37.0000,86.0000
1981-03-09 07:20:00 UTC,2444672.805556,27.9061,-93.7647,0530,37.91,2.65,38.0000,86.0000
1981-03-09 07:40:00 UTC,2444672.819444,27.9061,-93.7647,0530,36.86,3.22,37.0000,85.0000
1981-03-09 08:00:00 UTC,2444672.833333,27.9061,-93.7647,0530,38.90,2.72,39.0000,86.0000
1981-03-09 08:20:00 UTC,2444672.847222,27.9061,-93.7647,0530,41.69,5.12,42.0000,83.0000
1981-03-09 08:40:00 UTC,2444672.861111,27.9061,-93.7647,0530,40.00,0.00,40.0000,90.0000
1981-03-09 09:00:00 UTC,2444672.875000,27.9061,-93.7647,0530,41.97,-1.47,42.0000,92.0000
1981-03-09 09:20:00 UTC,2444672.888889,27.9061,-93.7647,0530,43.97,-1.54,44.0000,92.0000
1981-03-09 09:40:00 UTC,2444672.902778,27.9061,-93.7647,0530,42.58,5.98,43.0000,82.0000
1981-03-09 10:00:00 UTC,2444672.916667,27.9061,-93.7647,0530,40.75,10.16,42.0000,76.0000
1981-03-09 10:20:00 UTC,2444672.930556,27.9061,-93.7647,0530,41.48,6.57,42.0000,81.0000
1981-03-09 10:40:00 UTC,2444672.944444,27.9061,-93.7647,0530,42.97,1.50,43.0000,88.0000
1981-03-09 11:00:00 UTC,2444672.958333,27.9061,-93.7647,0530,42.99,0.75,43.0000,89.0000